�������l�o���
Date,Time,MP-1(��Sv/h),MP-2(��Sv/h),MP-3(��Sv/h),MP-4(��Sv/h),MP-5(��Sv/h),MP-6(��Sv/h),MP-7(��Sv/h),MP-8(��Sv/h),����,����(m/s),���J
2020/02/17,00:00,0.689,0.978,0.652,1.214,0.860,0.402,0.699,0.662,�k��,6.3,�L
2020/02/17,00:10,0.688,0.976,0.650,1.215,0.861,0.401,0.699,0.663,�k��,7.1,�L
2020/02/17,00:20,0.689,0.976,0.652,1.214,0.859,0.402,0.699,0.662,�k��,6.9,�L
2020/02/17,00:30,0.688,0.974,0.650,1.215,0.860,0.401,0.698,0.660,�k�k��,6.3,�L
2020/02/17,00:40,0.688,0.975,0.650,1.207,0.859,0.401,0.700,0.662,�k�k��,6.9,�L
2020/02/17,00:50,0.688,0.974,0.649,1.211,0.859,0.401,0.699,0.663,�k��,6.2,�L
2020/02/17,01:00,0.688,0.974,0.650,1.212,0.857,0.400,0.700,0.661,�k�k��,5.5,�L
2020/02/17,01:10,0.685,0.976,0.648,1.212,0.860,0.401,0.700,0.660,�k�k��,5.2,�L
2020/02/17,01:20,0.685,0.976,0.648,1.209,0.859,0.400,0.698,0.660,�k��,5.8,�L
2020/02/17,01:30,0.683,0.974,0.650,1.210,0.857,0.399,0.699,0.661,�k��,6.0,�L
2020/02/17,01:40,0.687,0.973,0.648,1.210,0.857,0.398,0.700,0.661,�k��,6.8,�L
2020/02/17,01:50,0.685,0.975,0.647,1.209,0.858,0.398,0.699,0.660,�k��,7.0,�L
2020/02/17,02:00,0.684,0.973,0.646,1.209,0.859,0.399,0.698,0.661,�k�k��,7.0,�L
2020/02/17,02:10,0.687,0.973,0.646,1.209,0.859,0.398,0.698,0.659,�k�k��,7.1,�L
2020/02/17,02:20,0.686,0.973,0.648,1.210,0.855,0.399,0.697,0.661,�k�k��,6.8,�L
2020/02/17,02:30,0.687,0.975,0.648,1.212,0.857,0.398,0.698,0.660,�k�k��,6.8,��
2020/02/17,02:40,0.684,0.974,0.647,1.209,0.859,0.398,0.696,0.661,�k��,5.6,��
2020/02/17,02:50,0.686,0.971,0.647,1.209,0.856,0.397,0.697,0.662,�k�k��,5.5,��
2020/02/17,03:00,0.687,0.973,0.645,1.210,0.857,0.398,0.699,0.663,�k�k��,4.1,��
2020/02/17,03:10,0.685,0.975,0.647,1.210,0.856,0.397,0.698,0.662,�k�k��,3.7,�L
2020/02/17,03:20,0.687,0.973,0.646,1.211,0.856,0.398,0.699,0.660,�k�k��,4.1,��
2020/02/17,03:30,0.686,0.977,0.647,1.209,0.857,0.398,0.699,0.661,�k,3.1,��
2020/02/17,03:40,0.685,0.976,0.647,1.209,0.858,0.398,0.697,0.662,�k�k��,3.9,��
2020/02/17,03:50,0.685,0.975,0.647,1.210,0.857,0.398,0.697,0.661,�k�k��,4.8,��
2020/02/17,04:00,0.686,0.975,0.648,1.210,0.858,0.396,0.696,0.662,�k�k��,5.8,��
2020/02/17,04:10,0.685,0.973,0.647,1.210,0.858,0.397,0.699,0.661,�k,6.3,��
2020/02/17,04:20,0.687,0.975,0.646,1.210,0.858,0.398,0.698,0.661,�k�k��,6.4,�L
2020/02/17,04:30,0.685,0.974,0.647,1.211,0.859,0.398,0.699,0.661,�k,5.8,�L
2020/02/17,04:40,0.685,0.975,0.646,1.210,0.860,0.399,0.699,0.662,�k,6.0,��
2020/02/17,04:50,0.687,0.973,0.646,1.212,0.859,0.398,0.696,0.661,�k,6.5,��
2020/02/17,05:00,0.687,0.975,0.649,1.210,0.859,0.398,0.700,0.660,�k,6.8,��
2020/02/17,05:10,0.686,0.974,0.647,1.212,0.860,0.398,0.697,0.662,�k�k��,6.5,��
2020/02/17,05:20,0.685,0.974,0.647,1.211,0.859,0.399,0.698,0.661,�k�k��,5.6,��
2020/02/17,05:30,0.686,0.975,0.646,1.211,0.858,0.398,0.698,0.660,�k�k��,5.9,��
2020/02/17,05:40,0.685,0.974,0.647,1.210,0.857,0.397,0.698,0.661,�k�k��,4.6,�L
2020/02/17,05:50,0.685,0.976,0.647,1.211,0.857,0.398,0.698,0.660,�k�k��,4.4,�L
2020/02/17,06:00,0.687,0.975,0.646,1.212,0.859,0.397,0.698,0.661,�k�k��,4.0,��
2020/02/17,06:10,0.686,0.976,0.648,1.211,0.858,0.397,0.698,0.663,�k�k��,4.3,�L
2020/02/17,06:20,0.687,0.976,0.646,1.211,0.859,0.398,0.699,0.661,�k��,3.8,�L
2020/02/17,06:30,0.686,0.976,0.648,1.214,0.860,0.397,0.697,0.661,�k�k��,3.9,�L
2020/02/17,06:40,0.687,0.978,0.649,1.212,0.860,0.398,0.697,0.660,�k,1.8,�L
2020/02/17,06:50,0.687,0.976,0.648,1.213,0.857,0.398,0.700,0.662,�k,1.4,�L
2020/02/17,07:00,0.688,0.976,0.649,1.213,0.857,0.401,0.699,0.663,�k�k��,1.9,�L
2020/02/17,07:10,0.690,0.974,0.651,1.215,0.861,0.403,0.699,0.662,�k,2.2,�L
2020/02/17,07:20,0.692,0.976,0.651,1.214,0.860,0.404,0.698,0.663,�k,2.9,�L
2020/02/17,07:30,0.690,0.974,0.651,1.215,0.862,0.403,0.697,0.662,�k,2.6,�L
2020/02/17,07:40,0.688,0.972,0.651,1.215,0.862,0.404,0.698,0.662,�k�k��,2.3,�L
2020/02/17,07:50,0.689,0.975,0.650,1.211,0.861,0.402,0.698,0.661,�k��,1.8,�L
2020/02/17,08:00,0.690,0.974,0.650,1.213,0.860,0.403,0.697,0.660,�k��,1.5,�L
2020/02/17,08:10,0.690,0.973,0.650,1.214,0.861,0.401,0.697,0.661,�k��,2.0,�L
2020/02/17,08:20,0.691,0.973,0.653,1.212,0.859,0.406,0.698,0.661,�k��,1.7,�L
2020/02/17,08:30,0.691,0.973,0.651,1.214,0.861,0.408,0.697,0.661,��,1.2,�L
2020/02/17,08:40,0.692,0.973,0.653,1.212,0.863,0.408,0.698,0.662,���쐼,0.9,�L
2020/02/17,08:50,0.693,0.969,0.653,1.211,0.861,0.411,0.699,0.662,��,1.5,�L
2020/02/17,09:00,0.695,0.969,0.654,1.211,0.863,0.411,0.697,0.664,���k��,1.8,�L
2020/02/17,09:10,0.695,0.968,0.655,1.213,0.861,0.414,0.698,0.663,�k�k��,0.9,�L
2020/02/17,09:20,0.696,0.969,0.654,1.210,0.862,0.412,0.698,0.663,���k��,1.5,�L
2020/02/17,09:30,0.693,0.966,0.652,1.210,0.863,0.413,0.697,0.663,�k�k��,2.2,�L
2020/02/17,09:40,0.694,0.968,0.653,1.207,0.865,0.411,0.698,0.662,�k�k��,1.7,�L
2020/02/17,09:50,0.692,0.970,0.655,1.208,0.863,0.411,0.697,0.661,���k��,0.9,�L
2020/02/17,10:00,0.693,0.964,0.654,1.204,0.863,0.409,0.695,0.660,���k��,1.2,�L
2020/02/17,10:10,0.690,0.964,0.650,1.206,0.859,0.408,0.695,0.660,�k��,1.1,�L
2020/02/17,10:20,0.692,0.966,0.649,1.203,0.858,0.408,0.693,0.661,���쓌,1.5,�L
2020/02/17,10:30,0.688,0.963,0.649,1.200,0.856,0.406,0.694,0.660,�쓌,1.7,�L
2020/02/17,10:40,0.687,0.967,0.649,1.200,0.853,0.404,0.694,0.659,�쓌,2.5,�L
2020/02/17,10:50,0.687,0.963,0.648,1.201,0.854,0.405,0.694,0.659,��,2.0,�L
2020/02/17,11:00,0.687,0.960,0.648,1.196,0.852,0.404,0.692,0.658,��,2.6,�L
2020/02/17,11:10,0.686,0.960,0.646,1.197,0.854,0.405,0.692,0.659,�쓌,1.7,�L
2020/02/17,11:20,0.689,0.969,0.647,1.196,0.854,0.402,0.691,0.660,�쓌,3.2,�L
2020/02/17,11:30,0.686,0.964,0.647,1.196,0.854,0.403,0.693,0.658,�쓌,3.0,�L
2020/02/17,11:40,0.687,0.965,0.647,1.196,0.856,0.403,0.692,0.658,�쓌,3.0,�L
2020/02/17,11:50,0.687,0.958,0.648,1.195,0.850,0.402,0.694,0.658,�쓌,3.9,�L
2020/02/17,12:00,0.688,0.966,0.648,1.197,0.853,0.402,0.691,0.659,�쓌,3.6,�L
2020/02/17,12:10,0.687,0.966,0.647,1.197,0.853,0.403,0.691,0.659,�쓌,4.1,�L
2020/02/17,12:20,0.689,0.965,0.648,1.196,0.853,0.402,0.693,0.658,��쓌,4.8,�L
2020/02/17,12:30,0.688,0.964,0.647,1.196,0.853,0.402,0.692,0.659,�쓌,2.2,�L
2020/02/17,12:40,0.687,0.969,0.647,1.197,0.855,0.403,0.695,0.660,��쓌,3.2,��
2020/02/17,12:50,0.688,0.968,0.647,1.197,0.854,0.402,0.694,0.658,��쓌,4.3,��
2020/02/17,13:00,0.687,0.965,0.648,1.195,0.853,0.401,0.693,0.658,��쓌,4.6,��
2020/02/17,13:10,0.686,0.967,0.645,1.197,0.854,0.400,0.693,0.659,��쓌,4.8,��
2020/02/17,13:20,0.686,0.968,0.646,1.199,0.854,0.401,0.693,0.657,��쓌,5.0,��
2020/02/17,13:30,0.687,0.966,0.646,1.196,0.853,0.399,0.691,0.658,��쓌,3.6,��
2020/02/17,13:40,0.686,0.967,0.645,1.196,0.852,0.400,0.691,0.659,��쓌,4.5,��
2020/02/17,13:50,0.687,0.967,0.646,1.197,0.852,0.399,0.691,0.659,��쓌,5.2,��
2020/02/17,14:00,0.686,0.967,0.643,1.197,0.850,0.399,0.691,0.658,��쓌,3.5,��
2020/02/17,14:10,0.686,0.967,0.644,1.197,0.853,0.400,0.692,0.659,�쓌,3.4,��
2020/02/17,14:20,0.685,0.969,0.645,1.198,0.853,0.400,0.693,0.657,��쓌,3.4,��
2020/02/17,14:30,0.684,0.969,0.643,1.199,0.855,0.400,0.693,0.658,�쓌,2.2,��
2020/02/17,14:40,0.686,0.968,0.644,1.202,0.856,0.400,0.693,0.657,�쓌,3.6,��
2020/02/17,14:50,0.684,0.971,0.643,1.200,0.853,0.400,0.692,0.656,�쓌,3.1,��
2020/02/17,15:00,0.685,0.969,0.643,1.201,0.853,0.398,0.692,0.654,�쓌,3.4,��
2020/02/17,15:10,0.684,0.971,0.647,1.197,0.855,0.399,0.693,0.656,���쓌,3.5,��
2020/02/17,15:20,0.684,0.973,0.645,1.199,0.854,0.401,0.694,0.656,�쓌,4.0,��
2020/02/17,15:30,0.686,0.975,0.644,1.202,0.855,0.399,0.694,0.657,�쓌,4.1,��
2020/02/17,15:40,0.684,0.974,0.644,1.202,0.854,0.399,0.693,0.658,��쓌,5.0,��
2020/02/17,15:50,0.684,0.974,0.645,1.200,0.855,0.400,0.693,0.659,�쓌,4.9,��
2020/02/17,16:00,0.685,0.976,0.647,1.202,0.855,0.400,0.695,0.659,��쓌,4.2,��
2020/02/17,16:10,0.687,0.975,0.647,1.201,0.856,0.400,0.695,0.659,��쓌,4.0,��
2020/02/17,16:20,0.686,0.975,0.647,1.200,0.856,0.400,0.694,0.659,��쓌,3.6,��
2020/02/17,16:30,0.689,0.978,0.647,1.202,0.858,0.400,0.695,0.658,��쓌,3.7,��
2020/02/17,16:40,0.689,0.978,0.646,1.200,0.857,0.400,0.695,0.660,��쓌,3.9,��
2020/02/17,16:50,0.688,0.979,0.646,1.204,0.859,0.399,0.693,0.660,��쓌,3.3,��
2020/02/17,17:00,0.687,0.979,0.648,1.202,0.858,0.399,0.693,0.660,��쓌,3.4,��
2020/02/17,17:10,0.687,0.979,0.645,1.202,0.858,0.400,0.695,0.658,��쓌,4.1,�L
2020/02/17,17:20,0.689,0.980,0.648,1.206,0.857,0.399,0.696,0.661,�쓌,3.2,�L
2020/02/17,17:30,0.688,0.979,0.651,1.201,0.859,0.400,0.696,0.660,�쓌,3.0,�L
2020/02/17,17:40,0.689,0.979,0.648,1.203,0.859,0.402,0.695,0.660,���쓌,2.0,�L
2020/02/17,17:50,0.690,0.976,0.650,1.201,0.855,0.400,0.696,0.658,��,2.0,�L
2020/02/17,18:00,0.688,0.974,0.651,1.201,0.855,0.405,0.694,0.659,�쓌,3.1,�L
2020/02/17,18:10,0.689,0.975,0.650,1.205,0.854,0.406,0.692,0.658,�쓌,3.6,�L
2020/02/17,18:20,0.689,0.971,0.648,1.201,0.852,0.410,0.686,0.654,��,3.6,�L
2020/02/17,18:30,0.687,0.972,0.649,1.204,0.850,0.409,0.684,0.653,��,2.0,�L
2020/02/17,18:40,0.687,0.969,0.647,1.200,0.850,0.410,0.686,0.653,�쐼,0.6,�L
2020/02/17,18:50,0.689,0.970,0.648,1.192,0.850,0.409,0.687,0.654,���k��,2.9,�L
2020/02/17,19:00,0.690,0.971,0.651,1.194,0.852,0.409,0.689,0.657,��,4.7,�L
2020/02/17,19:10,0.691,0.971,0.650,1.195,0.853,0.409,0.688,0.659,��,4.4,�L
2020/02/17,19:20,0.695,0.972,0.650,1.195,0.853,0.409,0.689,0.658,���k��,4.1,�L
2020/02/17,19:30,0.691,0.970,0.651,1.196,0.851,0.409,0.688,0.660,���k��,3.6,�L
2020/02/17,19:40,0.690,0.967,0.651,1.194,0.850,0.409,0.690,0.657,��,3.8,�L
2020/02/17,19:50,0.689,0.969,0.647,1.192,0.848,0.409,0.687,0.658,���k��,3.1,�L
2020/02/17,20:00,0.688,0.963,0.647,1.191,0.847,0.408,0.685,0.655,���k��,2.9,�L
2020/02/17,20:10,0.688,0.966,0.646,1.190,0.848,0.407,0.686,0.657,���k��,2.3,�L
2020/02/17,20:20,0.687,0.967,0.646,1.191,0.846,0.407,0.688,0.656,�k�k��,4.3,�L
2020/02/17,20:30,0.686,0.967,0.648,1.191,0.846,0.407,0.688,0.656,�k��,4.4,�L
2020/02/17,20:40,0.687,0.965,0.645,1.191,0.846,0.407,0.686,0.656,�k,4.6,�L
2020/02/17,20:50,0.685,0.964,0.646,1.191,0.845,0.404,0.689,0.654,�k,4.4,�L
2020/02/17,21:00,0.684,0.963,0.645,1.187,0.843,0.404,0.688,0.656,�k,4.8,�L
2020/02/17,21:10,0.687,0.964,0.645,1.188,0.843,0.406,0.687,0.655,�k,4.2,�L
2020/02/17,21:20,0.685,0.963,0.646,1.190,0.843,0.406,0.688,0.655,�k�k��,3.6,�L
2020/02/17,21:30,0.682,0.962,0.645,1.187,0.844,0.405,0.688,0.655,�k�k��,3.8,�L
2020/02/17,21:40,0.687,0.964,0.645,1.189,0.842,0.404,0.688,0.656,�k��,3.0,�L
2020/02/17,21:50,0.682,0.960,0.645,1.190,0.843,0.404,0.688,0.654,�k�k��,3.6,�L
2020/02/17,22:00,0.682,0.960,0.643,1.189,0.842,0.403,0.687,0.653,�k��,2.6,�L
2020/02/17,22:10,0.680,0.962,0.643,1.186,0.840,0.403,0.687,0.654,���k��,3.8,�L
2020/02/17,22:20,0.682,0.959,0.643,1.188,0.839,0.404,0.687,0.653,���k��,3.9,�L
2020/02/17,22:30,0.682,0.959,0.643,1.185,0.839,0.404,0.687,0.653,���k��,4.0,�L
2020/02/17,22:40,0.680,0.960,0.644,1.187,0.840,0.404,0.688,0.652,�k��,3.6,�L
2020/02/17,22:50,0.682,0.960,0.642,1.186,0.839,0.404,0.685,0.655,�k,3.3,�L
2020/02/17,23:00,0.682,0.960,0.643,1.187,0.842,0.403,0.689,0.655,�k,2.3,�L
2020/02/17,23:10,0.684,0.961,0.645,1.189,0.841,0.402,0.688,0.655,�k�k��,2.6,�L
2020/02/17,23:20,0.683,0.962,0.644,1.188,0.840,0.404,0.687,0.654,�k�k��,3.2,�L
2020/02/17,23:30,0.683,0.960,0.645,1.189,0.841,0.404,0.688,0.654,-,CALM,�L
2020/02/17,23:40,0.680,0.958,0.643,1.188,0.840,0.404,0.687,0.655,�k,8.9,�L
2020/02/17,23:50,0.679,0.955,0.643,1.180,0.837,0.404,0.686,0.653,�k�k��,6.5,�L
